Simultaneous Nadir Overpasses (SNOs) Predictions

Prediction of SNOs between FY3D and TERRA Satellite Orbit:

Table of predicted SNOs for the next 14.0 days since TLE Epoch: 9/19/2020
Index Date (FY3D) Time (FY3D) Lat,Lon (FY3D) SZA (FY3D ) Date (TERRA) Time (TERRA) Lat,Lon (TERRA) SZA (TERRA ) Distance(km) Time Diff (sec)
1 09/19/2020 18:47:01 -69.64, 76.79 111.55 09/19/2020 18:48:10 -69.54, 78.17 111.64 54.54 69
2 09/19/2020 19:37:35 68.99,-114.97 67.81 09/19/2020 19:37:45 69.00,-114.90 67.83 3.05 10
3 09/19/2020 20:28:15 -68.84, 52.55 112.32 09/19/2020 20:27:16 -68.83, 52.52 112.33 1.71 59
4 09/22/2020 11:03:28 -69.87,-167.64 110.28 09/22/2020 11:04:36 -69.75,-165.68 110.38 76.31 68
5 09/22/2020 11:53:58 69.01, 0.92 68.88 09/22/2020 11:54:15 68.98, 0.95 68.85 3.01 17
6 09/22/2020 12:44:38 -68.86, 168.44 111.26 09/22/2020 12:43:45 -68.87, 168.45 111.25 1.59 53
7 09/25/2020 04:10:20 68.97, 116.88 69.89 09/25/2020 04:10:45 68.99, 116.84 69.91 2.75 25
8 09/25/2020 05:01:01 -68.88, -75.67 110.20 09/25/2020 05:00:15 -68.89, -75.66 110.19 1.50 46
9 09/27/2020 20:26:43 69.05,-127.31 71.01 09/27/2020 20:27:14 69.03,-127.24 71.00 3.27 31
10 09/27/2020 21:17:23 -68.89, 40.22 109.13 09/27/2020 21:16:45 -68.88, 40.20 109.15 1.81 38
11 09/30/2020 12:43:05 69.02, -11.35 72.02 09/30/2020 12:43:46 68.99, -11.42 72.00 3.51 41
12 09/30/2020 13:33:46 -68.91, 156.11 108.07 09/30/2020 13:33:16 -68.90, 156.09 108.09 1.58 30
